Hourly Data Report for May 20, 2019

MIRAMICHI RCS
NEW BRUNSWICK
Current Station Operator: ECCC - MSC

47°00'34.000" N
65°27'54.000" W
33.00 m
8100989
71744
ACQ

Download Data

Hourly Data (May 2019)
Hourly Data Report for May 20, 2019
TIME
LST
Temp Definition
°C
Dew Point Definition
°C
Rel Hum Definition
%
Precip. Amount Definition
mm

Wind Dir Definition
10's deg

Wind Spd Definition
km/h
Visibility Definition
km
Stn Press Definition
kPa
Hmdx Definition


Wind Chill Definition


Weather Definition


00:00 10.0 6.9 81 0.0 20 6   101.32     LegendNANA
01:00 9.6 7.0 84 0.0 20 5   101.28     LegendNANA
02:00 9.2 7.1 87 0.0 12 4   101.21     LegendNANA
03:00 8.6 6.9 89 0.0 10 6   101.15     LegendNANA
04:00 8.5 6.9 90 0.0 8 6   101.11     LegendNANA
05:00 8.4 7.4 94 1.0 8 7   101.01     LegendNANA
06:00 8.3 7.5 95 1.7 11 11   100.97     LegendNANA
07:00 8.3 7.4 95 0.8 11 9   100.95     LegendNANA
08:00 8.3 7.7 96 1.8 9 19   100.75     LegendNANA
09:00 8.3 7.4 94 0.5 9 20   100.67     LegendNANA
10:00 8.5 7.6 95 1.6 10 20   100.61     LegendNANA
11:00 8.6 7.6 94 2.6 11 18   100.60     LegendNANA
12:00 8.7 7.6 93 0.5 9 19   100.52     LegendNANA
13:00 8.9 7.6 91 0.0 10 20   100.42     LegendNANA
14:00 9.0 7.7 92 0.0 9 20   100.36     LegendNANA
15:00 7.3 6.7 96 0.0 5 18   100.32     LegendNANA
16:00 7.3 6.7 96 0.0 6 17   100.30     LegendNANA
17:00 6.7 6.3 97 0.0 5 15   100.30     LegendNANA
18:00 6.2 5.8 98 0.0 5 14   100.25     LegendNANA
19:00 5.7 5.3 98 0.0 5 20   100.27     LegendNANA
20:00 5.5 5.1 97 0.8 5 17   100.27     LegendNANA
21:00 5.2 4.7 97 3.3 7 18   100.21     LegendNANA
22:00 5.1 4.5 96 0.8 6 14   100.18     LegendNANA
23:00 5.2 4.6 96 1.9 2 6   100.18     LegendNANA

Notes on Data Quality.

Legend

  • E = Estimated
  • M = Missing
  • NA = Not Available*
  • [empty] = Indicates an unobserved value
Date modified: